Weather reports worldwide

Advertisment
Idar-Oberstein, Germany (10618): temperature & dewpoint: 22.01.2020 08:00:00 - 28.01.2020 08:00:00 (CET)Idar-Oberstein, Germany (10618): wind speed: 22.01.2020 08:00:00 - 28.01.2020 08:00:00 (CET)Idar-Oberstein, Germany (10618): wind direction: 22.01.2020 08:00:00 - 28.01.2020 08:00:00 (CET)Idar-Oberstein, Germany (10618): reduced air pressure: 22.01.2020 08:00:00 - 28.01.2020 08:00:00 (CET)Idar-Oberstein, Germany (10618): visibility: 22.01.2020 08:00:00 - 28.01.2020 08:00:00 (CET)
Date & Time tt [°C] td [°C] ff [km/h] ff [kn] dd ppp [hPa] vv [km]
28.01.2020 08:00:00 4,8 3,2 22 12 SW 995,5 7
28.01.2020 07:00:00 5,3 3,5 25 14 SW 996,1 6
28.01.2020 06:00:00 5,2 4,0 18 10 SW 997,1 3,0
28.01.2020 05:00:00 5,2 3,9 18 10 SW 998,4 8
28.01.2020 04:00:00 5,4 3,8 22 12 SW 999,0 15
28.01.2020 03:00:00 5,1 3,7 22 12 SW 999,6 15
28.01.2020 02:00:00 5,8 4,3 25 14 SW 999,5 20
28.01.2020 01:00:00 5,8 4,5 25 14 SW 999,9 5
28.01.2020 00:00:00 5,0 4,0 18 10 SW 1001,1 4,5
27.01.2020 23:00:00 4,8 3,6 14 8 SW 1002,3 8
27.01.2020 22:00:00 4,8 3,5 14 8 SW 1003,6 8
27.01.2020 21:00:00 4,7 3,5 14 8 SW 1004,8 8
27.01.2020 20:00:00 4,7 3,5 11 6 SSW 1005,6 6
27.01.2020 19:00:00 5,1 3,9 14 8 SW 1006,6 6
27.01.2020 18:00:00 5,1 4,0 11 6 SW 1007,3 6
27.01.2020 17:00:00 5,4 4,3 14 8 SW 1007,8 6
27.01.2020 16:00:00 5,4 4,3 11 6 SW 1008,6 6
27.01.2020 15:00:00 5,4 4,2 18 10 SW 1009,2 6
27.01.2020 14:00:00 5,8 4,7 14 8 SW 1010,0 6
27.01.2020 13:00:00 5,9 4,7 14 8 SW 1010,8 6
27.01.2020 12:00:00 5,7 4,7 11 6 SW 1011,8 6
27.01.2020 11:00:00 5,8 4,7 14 8 SW 1012,6 6
27.01.2020 10:00:00 5,7 4,6 11 6 SW 1013,1 6
27.01.2020 09:00:00 5,4 4,3 11 6 SW 1013,5 6
27.01.2020 08:00:00 5,5 4,4 14 8 SW 1013,9 5
27.01.2020 07:00:00 5,4 4,4 11 6 SW 1014,2 5
27.01.2020 06:00:00 5,5 4,3 11 6 SW 1014,6 4,0
27.01.2020 05:00:00 5,2 4,1 7 4 SSW 1015,3 3,5
27.01.2020 04:00:00 5,1 4,3 11 6 SW 1015,8 3,0
27.01.2020 03:00:00 4,8 4,4 11 6 SW 1016,4 3,0
27.01.2020 02:00:00 3,9 3,7 7 4 SW 1016,9 3,0
27.01.2020 01:00:00 2,8 2,6 4 2 N 1017,5 1,0
27.01.2020 00:00:00 1,9 1,6 4 2 W 1018,0 0,1
26.01.2020 23:00:00 4,2 4,0 7 4 S 1017,6 5
26.01.2020 22:00:00 1,9 1,7 7 4 SW 1018,3 0,1
26.01.2020 21:00:00 1,5 1,3 7 4 WSW 1018,6 0,1
26.01.2020 20:00:00 2,1 1,9 4 2 SW 1018,6 0,5
26.01.2020 19:00:00 3,0 2,8 4 2 N 1018,5 0,3
26.01.2020 18:00:00 3,2 3,0 7 4 SW 1018,6 0,5
26.01.2020 17:00:00 3,7 3,4 4 2 WSW 1018,2 1,5
26.01.2020 16:00:00 3,7 3,5 11 6 SW 1018,5 1,5
26.01.2020 15:00:00 3,7 3,5 7 4 SW 1018,5 1,2
26.01.2020 14:00:00 3,5 3,2 7 4 WSW 1018,8 1,0
26.01.2020 13:00:00 1,7 1,5 4 2 ENE 1019,5 1,0
26.01.2020 12:00:00 0,0 -0,3 4 2 N 1020,6 1,0
26.01.2020 11:00:00 -0,3 -0,5 4 2 WNW 1020,9 0,8
26.01.2020 10:00:00 -0,8 -1,1 4 2 N 1021,0 0,8
26.01.2020 09:00:00 -1,2 -1,5 4 2 ENE 1020,8 0,1
26.01.2020 08:00:00 -1,5 -1,8 4 2 E 1020,7 0,3
26.01.2020 07:00:00 -1,6 -1,9 0 0 N 1020,7 0,1
26.01.2020 06:00:00 -1,6 -1,9 4 2 WSW 1020,9 0,1
26.01.2020 05:00:00 -1,6 -1,9 4 2 ENE 1020,9 0,1
26.01.2020 04:00:00 -1,4 -1,6 4 2 ENE 1021,1 0,1
26.01.2020 03:00:00 -1,2 -1,5 4 2 E 1021,5 0,1
26.01.2020 02:00:00 -0,9 -1,1 4 2 ENE 1021,6 0,1
26.01.2020 01:00:00 -0,9 -1,1 4 2 SW 1021,8 0,1
26.01.2020 00:00:00 -0,5 -0,7 0 0 N 1022,2 0,1
25.01.2020 23:00:00 -0,2 -0,4 4 2 E 1022,3 0,1
25.01.2020 22:00:00 0,1 -0,1 4 2 E 1022,4 0,1
25.01.2020 21:00:00 0,3 0,1 4 2 E 1022,4 0,1
25.01.2020 20:00:00 0,4 0,2 4 2 E 1022,5 0,2
25.01.2020 19:00:00 0,7 0,5 4 2 E 1022,5 0,2
25.01.2020 18:00:00 0,9 0,7 0 0 N 1022,3 0,2
25.01.2020 17:00:00 0,9 0,7 0 0 N 1022,2 0,2
25.01.2020 16:00:00 1,2 0,9 4 2 ENE 1022,3 0,2
25.01.2020 15:00:00 0,9 0,7 4 2 ESE 1022,7 0,2
25.01.2020 14:00:00 0,5 0,2 7 4 ENE 1023,3 0,2
25.01.2020 13:00:00 -0,2 -0,5 4 2 ENE 1023,9 0,2
25.01.2020 12:00:00 -0,3 -0,6 4 2 WNW 1024,2 0,2
25.01.2020 11:00:00 -0,8 -1,1 4 2 N 1024,3 0,2
25.01.2020 10:00:00 -1,7 -2,1 4 2 WSW 1024,3 0,1
25.01.2020 09:00:00 -2,2 -2,6 4 2 N 1024,2 0,1
25.01.2020 08:00:00 -2,6 -3,1 0 0 N 1023,7 0,2
25.01.2020 07:00:00 -2,8 -3,3 0 0 N 1023,8 0,2
25.01.2020 06:00:00 -2,5 -2,9 0 0 N 1023,6 0,1
25.01.2020 05:00:00 -2,1 -2,5 4 2 WSW 1023,3 0,1
25.01.2020 04:00:00 -1,9 -2,2 4 2 SW 1023,7 0,1
25.01.2020 03:00:00 -1,7 -2,0 0 0 N 1023,9 0,1
25.01.2020 02:00:00 -1,5 -1,8 4 2 N 1023,8 0,4
25.01.2020 01:00:00 -1,5 -1,8 4 2 SW 1024,0 0,4
25.01.2020 00:00:00 -1,2 -1,5 4 2 N 1024,3 0,4
24.01.2020 23:00:00 -0,9 -1,2 4 2 N 1024,4 0,4
24.01.2020 22:00:00 -1,0 -1,2 4 2 N 1024,5 0,4
24.01.2020 21:00:00 -0,7 -1,0 11 6 SW 1024,2 0,1
24.01.2020 20:00:00 -0,6 -0,9 4 2 N 1024,6 0,1
24.01.2020 19:00:00 -0,5 -0,8 4 2 N 1024,5 0,1
24.01.2020 18:00:00 -0,2 -0,6 4 2 SW 1023,9 0,9
24.01.2020 17:00:00 0,0 -0,6 4 2 WSW 1023,8 1,0
24.01.2020 16:00:00 0,3 -0,6 7 4 N 1023,7 1,5
24.01.2020 15:00:00 0,0 -0,9 4 2 N 1024,1 1,5
24.01.2020 14:00:00 -0,6 -1,6 4 2 NW 1024,7 1,5
24.01.2020 13:00:00 -1,0 -1,8 4 2 N 1025,1 1,0
24.01.2020 12:00:00 -1,7 -2,4 4 2 N 1025,8 1,0
24.01.2020 11:00:00 -2,2 -2,9 4 2 N 1026,3 1,0
24.01.2020 10:00:00 -2,6 -3,3 7 4 SW 1026,3 1,0
24.01.2020 09:00:00 -2,8 -3,4 7 4 N 1026,6 1,0
24.01.2020 08:00:00 -2,7 -3,3 4 2 S 1026,5 2,0
24.01.2020 07:00:00 -2,5 -3,0 4 2 N 1026,2 3,0
24.01.2020 06:00:00 -2,2 -2,6 4 2 N 1026,2 1,5
24.01.2020 05:00:00 -2,1 -2,5 4 2 N 1026,1 1,5
24.01.2020 04:00:00 -2,0 -2,4 4 2 N 1026,6 1,0
24.01.2020 03:00:00 -2,0 -2,4 4 2 N 1027,3 1,0
24.01.2020 02:00:00 -2,0 -2,4 4 2 N 1027,6 1,0
24.01.2020 01:00:00 -1,9 -2,4 4 2 N 1028,2 1,0
24.01.2020 00:00:00 -1,8 -2,3 4 2 N 1028,3 2,0
23.01.2020 23:00:00 -1,4 -1,9 4 2 N 1028,4 1,0
23.01.2020 22:00:00 -1,1 -1,6 7 4 ENE 1028,3 3,0
23.01.2020 21:00:00 -0,9 -1,4 4 2 N 1028,6 3,0
23.01.2020 20:00:00 -0,8 -1,3 7 4 E 1028,7 3,0
23.01.2020 19:00:00 -0,9 -1,4 11 6 ENE 1029,1 3,0
23.01.2020 18:00:00 -1,1 -1,5 7 4 ENE 1029,2 2,5
23.01.2020 17:00:00 -1,2 -1,6 11 6 ENE 1029,4 2,5
23.01.2020 16:00:00 -1,2 -1,5 11 6 ENE 1030,1 0,6
23.01.2020 15:00:00 -1,0 -1,3 11 6 ENE 1030,8 0,3
23.01.2020 14:00:00 -1,0 -1,3 11 6 ENE 1031,6 0,1
23.01.2020 13:00:00 -0,9 -1,2 7 4 ENE 1032,7 0,1
23.01.2020 12:00:00 -1,1 -1,4 14 8 ENE 1033,3 0,1
23.01.2020 11:00:00 -1,3 -1,6 14 8 ENE 1033,6 0,1
23.01.2020 10:00:00 -1,2 -1,5 11 6 ENE 1034,0 0,1
23.01.2020 09:00:00 -1,2 -1,5 11 6 ENE 1034,0 0,3
23.01.2020 08:00:00 -1,2 -1,5 14 8 ENE 1034,2 0,3
23.01.2020 07:00:00 -1,2 -1,5 11 6 ENE 1034,3 0,3
23.01.2020 06:00:00 -1,2 -1,5 11 6 ENE 1034,6 0,1
23.01.2020 05:00:00 -1,4 -1,6 7 4 ENE 1035,0 0,1
23.01.2020 04:00:00 -1,6 -1,9 4 2 ENE 1035,7 0,1
23.01.2020 03:00:00 -1,6 -1,9 4 2 ENE 1036,5 0,2
23.01.2020 02:00:00 -1,8 -2,1 4 2 ENE 1037,1 0,4
23.01.2020 01:00:00 -1,9 -2,2 4 2 E 1037,7 0,2
23.01.2020 00:00:00 -2,1 -2,4 7 4 E 1037,8 0,2
22.01.2020 23:00:00 -2,5 -2,9 7 4 ENE 1037,3 0,3
22.01.2020 22:00:00 -2,8 -3,5 4 2 ENE 1037,5 1,2
22.01.2020 21:00:00 -2,8 -3,5 4 2 ENE 1037,4 4,0
22.01.2020 20:00:00 -2,9 -3,8 4 2 E 1037,2 15
22.01.2020 19:00:00 -1,5 -3,2 7 4 NE 1036,4 15
22.01.2020 18:00:00 -0,2 -3,0 7 4 ENE 1035,6 20
22.01.2020 17:00:00 - - - - - - -
22.01.2020 16:00:00 3,6 -3,1 7 4 ENE 1034,7 40
22.01.2020 15:00:00 3,7 -2,9 7 4 ENE 1034,9 40
22.01.2020 14:00:00 2,8 -2,4 7 4 N 1035,7 35
22.01.2020 13:00:00 2,1 -2,6 7 4 N 1036,5 30
22.01.2020 12:00:00 0,9 -2,3 7 4 ENE 1036,7 30
22.01.2020 11:00:00 -0,4 -1,9 4 2 SSE 1036,7 25
22.01.2020 10:00:00 -4,0 -4,8 4 2 N 1037,3 25
22.01.2020 09:00:00 -5,2 -5,9 4 2 N 1037,9 20
22.01.2020 08:00:00 -5,4 -6,2 0 0 N 1037,9 15

tt = temperature
td = dewpoint
ff = wind speed
dd = wind direction
ppp = reduced air pressure
vv = visibility

Next stations